"Pseudo-MPEC" for RdSH235

Created 2023 Dec 2 2:22:07 UT using Find_Orb

Click here for an explanation of pseudo-MPECs

 
 Astrometry: 
     RdSH235*KB2023 11 18@RAstrometryYredacted;_YvCthr[I-:u?/9kT6J)]GJK($nHV(Y89
     RdSH235 KB2023 11 18bi$+=clickGWxGZ_;0XJ#JY:tbwAfH$jqLy4DWta$Q:%fSAv2Ey\Y89
     RdSH235 KB2023 11 18$m0fj+Smhere/w6R=$vforNx7S*QXexplanationp+SFqyy-WG=DY89

Station data:
(Y89) Proxima Centauri Observatory, Valdin  (N42.222443 W6.988110)  Spain.

Orbital elements:  RdSH235
   Perihelion 2024 Jul 26.45873 +/- 266 TT = 11:00:34 (JD 2460517.95873)
Epoch 2023 Nov 19.0 TT = JDT 2460267.5   Earth MOID: 0.2424   Ve: 0.0315
M 254.19576395 +/- 90               (J2000 ecliptic)             AutoNEOCP
n   0.42244179 +/- 0.262            Peri.  177.19666 +/- 57
a   1.75910377 +/- 0.727            Node    25.27587 +/- 37
e   0.5732967 +/- 0.251             Incl.   16.26951 +/- 51
P   2.33/852.17d           H 17.53  G  0.15   U 11.9  SR
q 0.75061537 +/- 0.92    Q 2.76759217 +/- 26.8
From 3 observations 2023 Nov. 18 (42.7 min); mean residual 0".61
Residuals in arcseconds: 
231118 Y89  .59+  .15-    231118 Y89  1.2-  .29+    231118 Y89  .59+  .15-    

Ephemerides (geocentric):
Date (UTC) HH   RA             Dec           delta  r     elong  mag " sig PA
---- --------  ------------   ------------  ------ ------ -----  --- --------
2023 12 02 02  02 07 43.373   +25 14 17.43  1.4708 2.3609 147.2 21.0 986' 110
2023 12 02 03  02 07 39.851   +25 14 04.98  1.4709 2.3607 147.2 21.0 987' 110
2023 12 02 04  02 07 36.332   +25 13 52.54  1.4710 2.3606 147.1 21.0 988' 110
2023 12 02 05  02 07 32.817   +25 13 40.10  1.4712 2.3604 147.1 21.0 989' 110
2023 12 02 06  02 07 29.306   +25 13 27.65  1.4713 2.3602 147.0 21.0 989' 109
2023 12 02 07  02 07 25.797   +25 13 15.20  1.4714 2.3600 147.0 21.0 990' 109
2023 12 02 08  02 07 22.293   +25 13 02.75  1.4716 2.3598 146.9 21.0 991' 109
2023 12 02 09  02 07 18.792   +25 12 50.30  1.4717 2.3596 146.9 21.0 992' 109
2023 12 02 10  02 07 15.295   +25 12 37.84  1.4718 2.3594 146.8 21.0 993' 109
2023 12 02 11  02 07 11.801   +25 12 25.39  1.4720 2.3593 146.7 21.0 993' 109
2023 12 02 12  02 07 08.310   +25 12 12.93  1.4721 2.3591 146.7 21.0 994' 109
2023 12 02 13  02 07 04.824   +25 12 00.47  1.4722 2.3589 146.6 21.0 995' 109
2023 12 02 14  02 07 01.341   +25 11 48.01  1.4724 2.3587 146.6 21.0 995' 109
2023 12 02 15  02 06 57.861   +25 11 35.54  1.4725 2.3585 146.5 21.0 996' 109
2023 12 02 16  02 06 54.385   +25 11 23.08  1.4726 2.3583 146.5 21.0 997' 109
2023 12 02 17  02 06 50.913   +25 11 10.61  1.4728 2.3581 146.4 21.0 997' 109
2023 12 02 18  02 06 47.444   +25 10 58.14  1.4729 2.3580 146.4 21.0 998' 109
2023 12 02 19  02 06 43.979   +25 10 45.68  1.4731 2.3578 146.3 21.0 999' 109
2023 12 02 20  02 06 40.518   +25 10 33.20  1.4732 2.3576 146.3 21.0  17d 109
2023 12 02 21  02 06 37.060   +25 10 20.73  1.4733 2.3574 146.2 21.0  17d 109
2023 12 02 22  02 06 33.606   +25 10 08.26  1.4735 2.3572 146.2 21.0  17d 109
2023 12 02 23  02 06 30.155   +25 09 55.78  1.4736 2.3570 146.1 21.0  17d 109
2023 12 03 00  02 06 26.708   +25 09 43.31  1.4737 2.3568 146.1 21.0  17d 109
2023 12 03 01  02 06 23.265   +25 09 30.83  1.4739 2.3567 146.0 21.0  17d 109
2023 12 03 02  02 06 19.825   +25 09 18.35  1.4740 2.3565 146.0 21.0  17d 109
2023 12 03 03  02 06 16.389   +25 09 05.87  1.4742 2.3563 145.9 21.0  17d 109
2023 12 03 04  02 06 12.957   +25 08 53.39  1.4743 2.3561 145.9 21.0  17d 109
2023 12 03 05  02 06 09.528   +25 08 40.91  1.4744 2.3559 145.8 21.0  17d 109
2023 12 03 06  02 06 06.103   +25 08 28.43  1.4746 2.3557 145.7 21.0  17d 109
2023 12 03 07  02 06 02.682   +25 08 15.95  1.4747 2.3555 145.7 21.0  17d 109
2023 12 03 08  02 05 59.264   +25 08 03.46  1.4749 2.3553 145.6 21.0  17d 109
2023 12 03 09  02 05 55.850   +25 07 50.98  1.4750 2.3552 145.6 21.0  17d 109
2023 12 03 10  02 05 52.440   +25 07 38.49  1.4752 2.3550 145.5 21.0  17d 109
2023 12 03 11  02 05 49.033   +25 07 26.01  1.4753 2.3548 145.5 21.0  17d 109
2023 12 03 12  02 05 45.630   +25 07 13.52  1.4754 2.3546 145.4 21.0  17d 109
2023 12 03 13  02 05 42.231   +25 07 01.03  1.4756 2.3544 145.4 21.0  17d 109
2023 12 03 14  02 05 38.835   +25 06 48.55  1.4757 2.3542 145.3 21.0  17d 109
2023 12 03 15  02 05 35.443   +25 06 36.06  1.4759 2.3540 145.3 21.0  17d 109
2023 12 03 16  02 05 32.055   +25 06 23.57  1.4760 2.3539 145.2 21.0  17d 109
2023 12 03 17  02 05 28.671   +25 06 11.08  1.4762 2.3537 145.2 21.0  17d 109
2023 12 03 18  02 05 25.290   +25 05 58.59  1.4763 2.3535 145.1 21.0  17d 109
2023 12 03 19  02 05 21.913   +25 05 46.10  1.4765 2.3533 145.1 21.0  17d 109
2023 12 03 20  02 05 18.539   +25 05 33.61  1.4766 2.3531 145.0 21.0  17d 109
2023 12 03 21  02 05 15.170   +25 05 21.12  1.4768 2.3529 145.0 21.0  17d 109
2023 12 03 22  02 05 11.804   +25 05 08.63  1.4769 2.3527 144.9 21.0  17d 109
2023 12 03 23  02 05 08.442   +25 04 56.14  1.4770 2.3525 144.9 21.0  17d 109
2023 12 04 00  02 05 05.083   +25 04 43.65  1.4772 2.3524 144.8 21.0  17d 109
2023 12 04 01  02 05 01.729   +25 04 31.15  1.4773 2.3522 144.8 21.0  17d 109